Location: Central Coast NSW, Australia
(33.2407°S, 151.4316°E)
Time: 18:52:27
(UTC+11:00)

ISS - Visible Passes

Search period start: 24 March 2019 00:00
Search period end: 03 April 2019 00:00
Orbit: 408 x 411 km, 51.6° (Epoch: 24 March)

Date Brightness Start Highest point End Pass type
(mag) Time Alt. Az. Time Alt. Az. Time Alt. Az.
25 Mar -1.9 06:11:15 10° NNW 06:14:12 29° NE 06:17:10 10° ESE visible
26 Mar -0.9 05:21:47 10° NNE 05:23:43 15° NE 05:25:39 10° E visible
27 Mar -3.9 06:06:45 16° NW 06:09:20 82° SW 06:12:43 10° SE visible
28 Mar -2.8 05:18:49 44° NE 05:18:49 44° NE 05:21:56 10° ESE visible
29 Mar -0.2 04:30:43 10° ESE 04:30:43 10° ESE 04:30:47 10° ESE visible
29 Mar -2.6 06:03:30 23° WSW 06:04:37 28° SW 06:07:36 10° SSE visible
30 Mar -2.1 05:15:16 29° SSE 05:15:16 29° SSE 05:17:09 10° SE visible
31 Mar -1.5 05:59:41 13° SW 06:00:04 13° SSW 06:01:47 10° S visible
01 Apr -1.0 05:11:14 13° S 05:11:14 13° S 05:11:47 10° SSE visible
